Boulder City, NV

11:45 AM PST on November 20, 2017 (GMT -0800)
Boulder City

Weather History for KBVU - May, 2014

Change the Weather History Date:

Monday, May 12, 2014

  Actual Average (KLAS) Record (KLAS)
Temperature  
Mean Temperature 66 °F -  
Max Temperature 78 °F 86 °F 104 °F (1996)
Min Temperature 55 °F 60 °F 45 °F (1963)
Cooling Degree Days 2    
Growing Degree Days 16 (Base 50)    
Moisture  
Dew Point 23 °F    
Average Humidity 20    
Maximum Humidity 39    
Minimum Humidity 9    
Precipitation  
Precipitation 0.00 in - - ()
Sea Level Pressure  
Sea Level Pressure 30.09 in    
Wind  
Wind Speed 8 mph (NNE)    
Max Wind Speed 18 mph    
Max Gust Speed 23 mph    
Visibility 10 miles    
Events Thunderstorm    
Averages and records for this station are not official NWS values.
T = Trace of Precipitation, MM = Missing Value Source: NWS Daily Summary

Daily Weather History Graph

Daily Weather History Graph

Search for Another Location

Airport or City:

Trip Planner

Search our weather history database for the weather conditions in past years. The results will help you decide how hot, cold, wet, or windy it might be!

Date:

Astronomy

May. 12, 2014 Rise Set
Actual Time 5:36 AM PDT 7:35 PM PDT
Civil Twilight 5:07 AM PDT 8:04 PM PDT
Nautical Twilight 4:33 AM PDT 8:38 PM PDT
Astronomical Twilight 3:56 AM PDT 9:15 PM PDT
Moon 5:42 PM PDT (5/12) 4:12 AM PDT (5/12)
Length of Visible Light 14h 56m
Length of Day
13h 59m
Waxing Gibbous, 95% of the Moon is Illuminated
May 12
Waxing Gibbous
May 14
Full
May 21
Last Quarter
May 28
New
Jun 5
First Quarter

Hourly Weather History & Observations

Time (PDT) Temp. Dew Point Humidity Pressure Visibility Wind Dir Wind Speed Gust Speed Precip Events Conditions
12:15 AM 60.8 °F 33.8 °F 36% 30.04 in 10.0 mi NE 8.1 mph - N/A Thunderstorm Clear
12:35 AM 60.8 °F 32.0 °F 34% 30.04 in 10.0 mi NE 8.1 mph - N/A   Clear
12:55 AM 59.0 °F 33.8 °F 39% 30.05 in 10.0 mi NNE 5.8 mph - N/A   Clear
1:15 AM 59.0 °F 33.8 °F 39% 30.05 in 10.0 mi NNE 6.9 mph - N/A   Clear
1:35 AM 59.0 °F 33.8 °F 39% 30.05 in 10.0 mi NNE 6.9 mph - N/A   Clear
1:55 AM 59.0 °F 33.8 °F 39% 30.05 in 10.0 mi NNE 5.8 mph - N/A   Clear
2:15 AM 59.0 °F 30.2 °F 34% 30.05 in 10.0 mi North 6.9 mph - N/A   Clear
2:35 AM 57.2 °F 30.2 °F 36% 30.05 in 10.0 mi North 8.1 mph - N/A   Clear
2:55 AM 57.2 °F 30.2 °F 36% 30.05 in 10.0 mi North 8.1 mph - N/A   Clear
3:15 AM 57.2 °F 30.2 °F 36% 30.05 in 10.0 mi North 6.9 mph - N/A   Clear
3:35 AM 57.2 °F 28.4 °F 33% 30.05 in 10.0 mi North 6.9 mph - N/A   Clear
3:55 AM 57.2 °F 28.4 °F 33% 30.05 in 10.0 mi North 5.8 mph - N/A   Clear
4:15 AM 55.4 °F 26.6 °F 33% 30.06 in 10.0 mi NNW 6.9 mph - N/A   Clear
4:35 AM 57.2 °F 26.6 °F 31% 30.06 in 10.0 mi North 6.9 mph - N/A   Clear
4:55 AM 59.0 °F 23.0 °F 25% 30.06 in 10.0 mi North 6.9 mph - N/A   Clear
5:15 AM 60.8 °F 23.0 °F 23% 30.06 in 10.0 mi North 10.4 mph - N/A   Clear
5:35 AM 59.0 °F 21.2 °F 23% 30.08 in 10.0 mi North 10.4 mph - N/A   Clear
5:55 AM 59.0 °F 21.2 °F 23% 30.09 in 10.0 mi NNW 9.2 mph - N/A   Clear
6:15 AM 62.6 °F 21.2 °F 20% 30.10 in 10.0 mi North 10.4 mph - N/A   Clear
6:35 AM 62.6 °F 23.0 °F 22% 30.11 in 10.0 mi North 8.1 mph 15.0 mph N/A   Clear
7:15 AM 66.2 °F 23.0 °F 19% 30.12 in 10.0 mi North 16.1 mph 21.9 mph N/A Thunderstorm Clear
7:35 AM 66.2 °F 23.0 °F 19% 30.13 in 10.0 mi North 13.8 mph 20.7 mph N/A   Clear
7:55 AM 66.2 °F 23.0 °F 19% 30.14 in 10.0 mi NNE 15.0 mph - N/A   Clear
8:15 AM 68.0 °F 23.0 °F 18% 30.15 in 10.0 mi NNE 10.4 mph - N/A   Clear
8:35 AM 68.0 °F 23.0 °F 18% 30.15 in 10.0 mi NE 9.2 mph - N/A   Clear
8:55 AM 68.0 °F 23.0 °F 18% 30.16 in 10.0 mi NNE 8.1 mph - N/A   Clear
9:15 AM 69.8 °F 23.0 °F 17% 30.16 in 10.0 mi NNE 8.1 mph 15.0 mph N/A   Clear
9:35 AM 69.8 °F 23.0 °F 17% 30.15 in 10.0 mi NE 8.1 mph 15.0 mph N/A   Clear
9:55 AM 69.8 °F 23.0 °F 17% 30.15 in 10.0 mi NE 9.2 mph 15.0 mph N/A   Clear
10:15 AM 69.8 °F 23.0 °F 17% 30.15 in 10.0 mi NE 11.5 mph - N/A   Clear
10:35 AM 71.6 °F 23.0 °F 16% 30.15 in 10.0 mi NE 6.9 mph 15.0 mph N/A   Clear
10:55 AM 71.6 °F 21.2 °F 15% 30.14 in 10.0 mi NE 12.7 mph 19.6 mph N/A   Clear
11:15 AM 71.6 °F 21.2 °F 15% 30.14 in 10.0 mi NE 8.1 mph 20.7 mph N/A   Clear
11:35 AM 73.4 °F 21.2 °F 14% 30.14 in 10.0 mi NE 13.8 mph - N/A Thunderstorm Clear
1:15 PM 77.0 °F 17.6 °F 11% 30.11 in 10.0 mi NE 18.4 mph - N/A   Clear
1:35 PM 77.0 °F 15.8 °F 10% 30.11 in 10.0 mi NE 13.8 mph 23.0 mph N/A   Clear
1:55 PM 77.0 °F 15.8 °F 10% 30.11 in 10.0 mi NE 12.7 mph - N/A   Clear
2:15 PM 77.0 °F 15.8 °F 10% 30.10 in 10.0 mi ENE 10.4 mph 20.7 mph N/A Thunderstorm Clear
2:35 PM 77.0 °F 15.8 °F 10% 30.10 in 10.0 mi NNE 5.8 mph 20.7 mph N/A   Clear
2:55 PM 77.0 °F 15.8 °F 10% 30.09 in 10.0 mi ENE 11.5 mph 18.4 mph N/A   Clear
3:15 PM 78.8 °F 15.8 °F 9% 30.08 in 10.0 mi NNE 9.2 mph 18.4 mph N/A   Clear
3:35 PM 78.8 °F 15.8 °F 9% 30.07 in 10.0 mi North 10.4 mph - N/A   Clear
3:55 PM 78.8 °F 15.8 °F 9% 30.06 in 10.0 mi ENE 5.8 mph 13.8 mph N/A   Clear
4:15 PM 78.8 °F 15.8 °F 9% 30.05 in 10.0 mi Variable 6.9 mph 17.3 mph N/A Thunderstorm Clear
4:35 PM 78.8 °F 15.8 °F 9% 30.05 in 10.0 mi NE 10.4 mph 18.4 mph N/A   Clear
4:55 PM 78.8 °F 14.0 °F 9% 30.04 in 10.0 mi Variable 5.8 mph 13.8 mph N/A   Clear
5:15 PM 78.8 °F 14.0 °F 9% 30.04 in 10.0 mi North 5.8 mph - N/A   Clear
5:35 PM 78.8 °F 14.0 °F 9% 30.04 in 10.0 mi NE 10.4 mph - N/A   Clear
5:55 PM 78.8 °F 14.0 °F 9% 30.04 in 10.0 mi Calm Calm 16.1 mph N/A   Clear
6:15 PM 78.8 °F 14.0 °F 9% 30.04 in 10.0 mi NE 5.8 mph - N/A   Clear
6:35 PM 78.8 °F 14.0 °F 9% 30.04 in 10.0 mi East 5.8 mph - N/A   Clear
6:55 PM 77.0 °F 14.0 °F 9% 30.04 in 10.0 mi ENE 6.9 mph - N/A   Clear
7:15 PM 77.0 °F 17.6 °F 11% 30.05 in 10.0 mi East 9.2 mph - N/A   Clear
7:35 PM 75.2 °F 17.6 °F 11% 30.05 in 10.0 mi ESE 9.2 mph - N/A   Clear
7:55 PM 75.2 °F 17.6 °F 11% 30.06 in 10.0 mi East 6.9 mph - N/A   Clear
8:15 PM 73.4 °F 17.6 °F 12% 30.06 in 10.0 mi ENE 5.8 mph - N/A   Clear
8:35 PM 71.6 °F 19.4 °F 14% 30.07 in 10.0 mi ENE 5.8 mph - N/A   Clear
8:55 PM 66.2 °F 28.4 °F 24% 30.08 in 10.0 mi NE 5.8 mph - N/A   Clear
9:15 PM 66.2 °F 26.6 °F 23% 30.09 in 10.0 mi NE 6.9 mph - N/A   Clear
9:35 PM 68.0 °F 26.6 °F 21% 30.10 in 10.0 mi NNE 9.2 mph - N/A   Clear
9:55 PM 68.0 °F 23.0 °F 18% 30.11 in 10.0 mi North - - N/A   Clear
10:15 PM 69.8 °F 24.8 °F 18% 30.12 in 10.0 mi NE 11.5 mph - N/A   Clear
10:35 PM 69.8 °F 30.2 °F 23% 30.14 in 10.0 mi NNE 10.4 mph - N/A   Clear
11:15 PM 68.0 °F 33.8 °F 28% 30.16 in 10.0 mi NNE 12.7 mph 19.6 mph N/A   Clear
11:35 PM 68.0 °F 32.0 °F 26% 30.18 in 10.0 mi NE 12.7 mph - N/A Thunderstorm Clear
11:55 PM 68.0 °F 28.4 °F 23% 30.19 in 10.0 mi NNE 10.4 mph 17.3 mph N/A   Clear